Regional Weather Roundup
Issued by NWS

Home | Current Version | Previous Version | Graphics & Text | Print | Product List | Glossary On
Versions: 1 2 3 4 5 6 7 8 9 10 11 12 13 14 15 16 17 18 19 20 21 22 23 24 25 26 27 28 29 30 31 32 33 34 35 36 37 38 39 40 41 42 43 44 45 46 47 48 49 50
158
ASUS43 KFSD 010910
RWRSD

WEATHER ROUNDUP FOR SOUTH DAKOTA
NATIONAL WEATHER SERVICE SIOUX FALLS SD
400 AM CDT SUN MAY 01 2016

NOTE: "FAIR" INDICATES FEW OR NO CLOUDS BELOW 12,000 FEET WITH NO
SIGNIFICANT WEATHER AND/OR OBSTRUCTIONS TO VISIBILITY.


SDZ001>005-009-010-012>017-011000-
NORTHWEST AND NORTH CENTRAL SOUTH DAKOTA

CITY           SKY/WX    TMP DP  RH WIND       PRES   REMARKS
BUFFALO          N/A     33  26  75 W5        30.23R WCI  29
FAITH            N/A     34  26  72 N8        30.25S WCI  27
MOBRIDGE       CLEAR     41  30  65 NE12      30.21R
$$

SDZ012>016-024>037-041>051-057-063-072>074-011000-
SOUTHWEST AND SOUTH CENTRAL SOUTH DAKOTA

CITY           SKY/WX    TMP DP  RH WIND       PRES   REMARKS
RAPID CTY ARPT CLEAR     33  29  85 N12       30.25R WCI  24
PIERRE         CLOUDY    36  31  82 NE8       30.19R
CUSTER         CLOUDY    35  22  58 N8        30.23R WCI  29
ELLSWORTH AFB  CLEAR     39  31  71 N9        30.25R
PHILIP         CLOUDY    37  29  72 N14       30.22R
PINE RIDGE     CLOUDY    36  32  85 N6        30.20F
WINNER         FAIR      41  38  89 NW6       30.16S
$$

SDZ004>011-016>023-039-040-011000-
NORTHEAST SOUTH DAKOTA

CITY           SKY/WX    TMP DP  RH WIND       PRES   REMARKS
ABERDEEN       CLEAR     35  30  82 N5        30.22R
WATERTOWN      CLOUDY    37  28  70 NE10      30.16R
BROOKINGS      CLOUDY    39  32  76 NE8       30.13R
SISSETON         N/A     34  28  79 NE3       30.22R
$$

SDZ017-020-022-023-036>040-048>070-011000-
SOUTHEAST SOUTH DAKOTA

CITY           SKY/WX    TMP DP  RH WIND       PRES   REMARKS
SIOUX FALLS    LGT RAIN  42  39  89 NE12      30.10R
HURON          CLOUDY    38  31  76 NE7       30.17R
CHAMBERLAIN    CLOUDY    43  38  84 NE6       30.16R
MITCHELL       CLOUDY    43  39  86 N9        30.14R
YANKTON        CLOUDY    45  39  81 NE15      30.07R
$$

ABBREVIATIONS USED IN REMARKS
   TC - TEMPERATURE IN CELSIUS
  WCI - WIND CHILL INDEX
   HX - HEAT INDEX
  VSB - VISIBILITY





USA.gov is the U.S. government's official web portal to all federal, state and local government web resources and services.